Regional Weather Roundup
Issued by NWS

Home | Current Version | Previous Version | Graphics & Text | Print | Product List | Glossary On
Versions: 1 2 3 4 5 6 7 8 9 10 11 12 13 14 15 16 17 18 19 20 21 22 23 24 25 26 27 28 29 30 31 32 33 34 35 36 37 38 39 40 41 42 43 44 45 46 47 48 49
000
ASUS45 KCYS 031610
RWRWY

WYOMING REGIONAL WEATHER ROUNDUP
NATIONAL WEATHER SERVICE CHEYENNE WY
1000 AM MDT FRI JUL 03 2015

NOTE:  "FAIR" INDICATES FEW OR NO CLOUDS BELOW 12,000 FEET
WITH NO SIGNIFICANT WEATHER AND/OR OBSTRUCTIONS TO VISIBILITY.

WYZ001-031700-
YELLOWSTONE NATIONAL PARK

CITY           SKY/WX    TMP DP  RH WIND       PRES   REMARKS
LK YELLOWSTONE   N/A     62  48  60 SE5       30.31F
W YELLOWSTONE  NOT AVBL

$$
WYZ002>013-054>058-071-098>099-031700-
NORTHERN WYOMING

CITY           SKY/WX    TMP DP  RH WIND       PRES   REMARKS
JACKSON        FAIR      68  45  42 CALM      30.22F
CODY           PTSUNNY   75  52  43 S8        30.11F
GREYBULL       FAIR      79  53  40 VRB3      30.04F
WORLAND        FAIR      79  57  46 VRB3      30.05F
SHERIDAN       FAIR      73  52  47 CALM      30.06F
BUFFALO        FAIR      75  53  46 NE6       30.12F
GILLETTE       FAIR      76  56  49 S13       30.09F
HULETT         FAIR      73  57  56 SW6       30.11F
NEWCASTLE      FAIR      70  55  60 MISG      30.13F

$$
WYZ014>020-022>026-101>103-031700-
CENTRAL WYOMING

CITY           SKY/WX    TMP DP  RH WIND       PRES   REMARKS
BIG PINEY      FAIR      70  48  45 SE6       30.28F
PINEDALE       FAIR      70  46  43 SE5       30.29F
DUBOIS         FAIR      68  48  49 CALM      30.25F
LANDER         FAIR      72  55  55 VRB3      30.16F
RIVERTON       FAIR      72  55  55 VRB6      30.16F
CASPER         FAIR      75  53  46 S9        30.14F
DOUGLAS        FAIR      74  59  59 SE8       30.14F

$$
WYZ021-027>030-104>119-031700-
SOUTHERN WYOMING

CITY           SKY/WX    TMP DP  RH WIND       PRES   REMARKS
EVANSTON       FAIR      73  46  38 CALM      30.28S
KEMMERER       FAIR      73  48  40 E5        30.28F
FORT BRIDGER   SUNNY     72  50  46 CALM      30.30S
ROCK SPRINGS   FAIR      71  51  49 NE5       30.26S
DIXON          FAIR      73  44  34 SW3       30.25S
RAWLINS        FAIR      66  49  54 SE8       30.26S
SARATOGA       FAIR      68  52  56 SE3       30.27F
LARAMIE        FAIR      68  50  52 S7        30.27F
CHEYENNE       FAIR      68  56  65 S10       30.24F
TORRINGTON     FAIR      71  60  68 CALM      30.13S
PINE BLUFFS    FAIR      72  52  49 CALM      30.20F

$$



USA.gov is the U.S. government's official web portal to all federal, state and local government web resources and services.